Our Location

356 (Felixstowe) Squadron SHQ,
Carr Road,
Felixstowe,
IP11 3RX

Tel: 01394 673419 Mon/Wed Evenings

email: This email address is being protected from spambots. You need JavaScript enabled to view it.

Air Cadet Magazine

Fx Cdt Futurepilot B&W

Absence Form

Cdt Hawk Pilot

Aviation Weather - Wattisham

[source: ADDS]
METAR
EGUW 230650Z 14010KT 9000 HZ FEW120 BKN250 18/16 Q1012 BLU NOSIG =
TAF
TAF EGUW 230602Z 2306/2315 14010KT 6000 HZ FEW045 BECMG 2306/2309 9999 NSW BECMG 2311/2313 BKN018 =
You are here: Home